When you browse on this site, cookies collect data to enhance your experience and personalize the content and advertising you see.
Visit our Privacy Policy to learn more. By continuing to use the site, you agree to this use of cookies and data.
  • In Österreich
  • Länderverzeichnis
  • Für 7 Tage
  • Wassertemperatur
  • Satellitenkarten
  • Wetterkarte
  • News
  • Widgets
  • user-avatar
    Anmelden

    Stündliche Wetter Rawson

    Heute, 10 Dezember, Montag

    Zeit Temperatur Niederschläge Wind Luftdruck Luftfeuchtigkeit
    00:00 +26°C° 0 mm 5 m/S 753 mmHg 31%
    01:00 +25°C° 0 mm 5 m/S 753 mmHg 32%
    02:00 +25°C° 0 mm 5 m/S 753 mmHg 34%
    03:00 +23°C° 0 mm 4 m/S 753 mmHg 35%
    04:00 +23°C° 0 mm 4 m/S 754 mmHg 36%
    05:00 +22°C° 0 mm 4 m/S 754 mmHg 37%
    06:00 +23°C° 0 mm 4 m/S 754 mmHg 34%
    07:00 +25°C° 0 mm 4 m/S 754 mmHg 32%
    08:00 +26°C° 0 mm 4 m/S 754 mmHg 29%
    09:00 +27°C° 0 mm 4 m/S 754 mmHg 26%
    10:00 +28°C° 0 mm 4 m/S 754 mmHg 23%
    11:00 +29°C° 0 mm 4 m/S 754 mmHg 19%
    12:00 +29°C° 0 mm 5 m/S 754 mmHg 19%
    13:00 +29°C° 0 mm 6 m/S 754 mmHg 19%
    14:00 +29°C° 0 mm 6 m/S 753 mmHg 19%
    15:00 +29°C° 0 mm 7 m/S 753 mmHg 19%
    16:00 +29°C° 0 mm 7 m/S 753 mmHg 20%
    17:00 +29°C° 0 mm 7 m/S 753 mmHg 21%
    18:00 +29°C° 0 mm 7 m/S 753 mmHg 22%
    19:00 +28°C° 0 mm 6 m/S 753 mmHg 23%
    20:00 +28°C° 0 mm 5 m/S 753 mmHg 25%
    21:00 +27°C° 0 mm 5 m/S 753 mmHg 26%
    22:00 +27°C° 0 mm 5 m/S 754 mmHg 27%
    23:00 +26°C° 0 mm 5 m/S 754 mmHg 27%

    Morgen, 11 Dezember, Dienstag

    Zeit Temperatur Niederschläge Wind Luftdruck Luftfeuchtigkeit
    00:00 +25°C° 0 mm 5 m/S 754 mmHg 28%
    01:00 +23°C° 0 mm 5 m/S 755 mmHg 28%
    02:00 +22°C° 0 mm 5 m/S 755 mmHg 28%
    03:00 +22°C° 0 mm 5 m/S 755 mmHg 29%
    04:00 +21°C° 0 mm 4 m/S 755 mmHg 31%
    05:00 +20°C° 0 mm 4 m/S 755 mmHg 32%
    06:00 +21°C° 0 mm 4 m/S 756 mmHg 29%
    07:00 +22°C° 0 mm 5 m/S 756 mmHg 26%
    08:00 +23°C° 0 mm 5 m/S 756 mmHg 23%
    09:00 +25°C° 0 mm 5 m/S 756 mmHg 21%
    10:00 +26°C° 0 mm 4 m/S 756 mmHg 19%
    11:00 +26°C° 0 mm 4 m/S 756 mmHg 17%
    12:00 +27°C° 0 mm 4 m/S 756 mmHg 17%
    13:00 +27°C° 0 mm 5 m/S 756 mmHg 17%
    14:00 +28°C° 0 mm 5 m/S 756 mmHg 17%
    15:00 +27°C° 0 mm 6 m/S 756 mmHg 19%
    16:00 +27°C° 0 mm 6 m/S 756 mmHg 20%
    17:00 +27°C° 0 mm 6 m/S 756 mmHg 21%
    18:00 +26°C° 0 mm 5 m/S 756 mmHg 22%
    19:00 +26°C° 0 mm 5 m/S 757 mmHg 22%
    20:00 +25°C° 0 mm 5 m/S 757 mmHg 23%
    21:00 +25°C° 0 mm 5 m/S 757 mmHg 24%
    22:00 +25°C° 0 mm 5 m/S 758 mmHg 24%
    23:00 +23°C° 0 mm 5 m/S 758 mmHg 24%

    übermorgen, 12 Dezember, Mittwoch

    Zeit Temperatur Niederschläge Wind Luftdruck Luftfeuchtigkeit
    00:00 +22°C° 0 mm 6 m/S 758 mmHg 26%
    01:00 +21°C° 0 mm 7 m/S 758 mmHg 28%
    02:00 +20°C° 0 mm 7 m/S 758 mmHg 29%
    03:00 +18°C° 0 mm 7 m/S 758 mmHg 30%
    04:00 +17°C° 0 mm 7 m/S 758 mmHg 31%
    05:00 +17°C° 0 mm 7 m/S 759 mmHg 32%
    06:00 +18°C° 0 mm 7 m/S 759 mmHg 29%
    07:00 +20°C° 0 mm 6 m/S 759 mmHg 27%
    08:00 +21°C° 0 mm 6 m/S 759 mmHg 24%
    09:00 +22°C° 0 mm 5 m/S 759 mmHg 23%
    10:00 +23°C° 0 mm 4 m/S 759 mmHg 22%
    11:00 +25°C° 0 mm 3 m/S 758 mmHg 21%
    12:00 +26°C° 0 mm 3 m/S 758 mmHg 20%
    13:00 +27°C° 0 mm 4 m/S 757 mmHg 19%
    14:00 +28°C° 0 mm 5 m/S 757 mmHg 18%
    15:00 +29°C° 0 mm 5 m/S 756 mmHg 18%
    16:00 +29°C° 0 mm 6 m/S 755 mmHg 17%
    17:00 +29°C° 0 mm 6 m/S 754 mmHg 17%
    18:00 +28°C° 0 mm 8 m/S 754 mmHg 22%
    19:00 +27°C° 0 mm 9 m/S 754 mmHg 26%
    20:00 +24°C° 0 mm 10 m/S 754 mmHg 31%
    21:00 +24°C° 0 mm 9 m/S 754 mmHg 33%
    22:00 +23°C° 0 mm 8 m/S 754 mmHg 36%
    23:00 +22°C° 0 mm 7 m/S 754 mmHg 38%

    13 Dezember, Donnerstag

    Zeit Temperatur Niederschläge Wind Luftdruck Luftfeuchtigkeit
    00:00 +22°C° 0 mm 7 m/S 753 mmHg 41%
    01:00 +21°C° 0 mm 6 m/S 753 mmHg 44%
    02:00 +21°C° 0 mm 6 m/S 752 mmHg 47%
    03:00 +21°C° 0 mm 5 m/S 752 mmHg 47%
    04:00 +21°C° 0 mm 5 m/S 752 mmHg 48%
    05:00 +20°C° 0 mm 4 m/S 752 mmHg 48%
    06:00 +21°C° 0 mm 5 m/S 752 mmHg 42%
    07:00 +23°C° 0 mm 6 m/S 752 mmHg 36%
    08:00 +24°C° 0 mm 7 m/S 752 mmHg 31%
    09:00 +24°C° 0.1 mm 6 m/S 752 mmHg 28%
    10:00 +26°C° 0.1 mm 6 m/S 752 mmHg 26%
    11:00 +26°C° 0.1 mm 6 m/S 752 mmHg 24%
    12:00 +26°C° 0 mm 6 m/S 752 mmHg 23%
    13:00 +27°C° 0 mm 5 m/S 752 mmHg 21%
    14:00 +27°C° 0 mm 5 m/S 751 mmHg 20%
    15:00 +27°C° 0 mm 6 m/S 751 mmHg 20%
    16:00 +27°C° 0 mm 6 m/S 751 mmHg 21%
    17:00 +27°C° 0 mm 6 m/S 751 mmHg 22%
    18:00 +24°C° 0 mm 6 m/S 751 mmHg 28%
    19:00 +22°C° 0 mm 6 m/S 752 mmHg 34%
    20:00 +21°C° 0 mm 6 m/S 752 mmHg 40%
    21:00 +20°C° 0 mm 5 m/S 753 mmHg 44%
    22:00 +20°C° 0 mm 4 m/S 753 mmHg 47%
    23:00 +19°C° 0 mm 3 m/S 754 mmHg 51%

    14 Dezember, Freitag

    Zeit Temperatur Niederschläge Wind Luftdruck Luftfeuchtigkeit
    00:00 +19°C° 0 mm 4 m/S 754 mmHg 49%
    01:00 +19°C° 0 mm 5 m/S 754 mmHg 48%
    02:00 +19°C° 0 mm 6 m/S 754 mmHg 46%
    03:00 +17°C° 0.1 mm 7 m/S 754 mmHg 50%
    04:00 +17°C° 0.1 mm 8 m/S 754 mmHg 53%
    05:00 +16°C° 0.1 mm 9 m/S 755 mmHg 57%
    06:00 +17°C° 0 mm 9 m/S 755 mmHg 53%
    07:00 +18°C° 0 mm 8 m/S 755 mmHg 50%
    08:00 +18°C° 0 mm 8 m/S 756 mmHg 46%
    09:00 +20°C° 0 mm 8 m/S 756 mmHg 42%
    10:00 +21°C° 0 mm 8 m/S 756 mmHg 38%
    11:00 +22°C° 0 mm 7 m/S 756 mmHg 33%
    12:00 +22°C° 0 mm 7 m/S 756 mmHg 31%
    13:00 +23°C° 0 mm 7 m/S 756 mmHg 29%
    14:00 +23°C° 0 mm 7 m/S 755 mmHg 27%
    15:00 +23°C° 0 mm 7 m/S 755 mmHg 28%
    16:00 +23°C° 0 mm 6 m/S 755 mmHg 29%
    17:00 +23°C° 0 mm 6 m/S 755 mmHg 30%
    18:00 +21°C° 0 mm 5 m/S 756 mmHg 38%
    19:00 +20°C° 0 mm 5 m/S 756 mmHg 47%
    20:00 +18°C° 0 mm 4 m/S 756 mmHg 55%
    21:00 +18°C° 0 mm 4 m/S 757 mmHg 57%
    22:00 +17°C° 0 mm 3 m/S 757 mmHg 58%
    23:00 +17°C° 0 mm 3 m/S 757 mmHg 60%

    15 Dezember, Samstag

    Zeit Temperatur Niederschläge Wind Luftdruck Luftfeuchtigkeit
    00:00 +18°C° 0 mm 4 m/S 757 mmHg 55%
    01:00 +17°C° 0 mm 5 m/S 756 mmHg 50%
    02:00 +19°C° 0 mm 5 m/S 756 mmHg 45%
    03:00 +17°C° 0 mm 6 m/S 756 mmHg 43%
    04:00 +17°C° 0 mm 6 m/S 756 mmHg 40%
    05:00 +17°C° 0 mm 7 m/S 756 mmHg 38%
    06:00 +19°C° 0 mm 6 m/S 756 mmHg 35%
    07:00 +20°C° 0 mm 6 m/S 756 mmHg 32%
    08:00 +21°C° 0 mm 6 m/S 756 mmHg 29%
    09:00 +23°C° 0 mm 6 m/S 755 mmHg 26%
    10:00 +24°C° 0 mm 6 m/S 755 mmHg 23%
    11:00 +27°C° 0 mm 5 m/S 755 mmHg 20%
    12:00 +28°C° 0 mm 5 m/S 754 mmHg 19%
    13:00 +30°C° 0 mm 5 m/S 753 mmHg 17%
    14:00 +32°C° 0 mm 5 m/S 752 mmHg 16%
    15:00 +33°C° 0 mm 6 m/S 751 mmHg 16%
    16:00 +33°C° 0 mm 6 m/S 751 mmHg 15%
    17:00 +33°C° 0 mm 6 m/S 750 mmHg 15%
    18:00 +33°C° 0 mm 6 m/S 750 mmHg 16%
    19:00 +32°C° 0 mm 5 m/S 749 mmHg 17%
    20:00 +32°C° 0 mm 5 m/S 749 mmHg 18%
    21:00 +30°C° 0 mm 6 m/S 749 mmHg 20%
    22:00 +29°C° 0 mm 7 m/S 749 mmHg 22%
    23:00 +28°C° 0 mm 8 m/S 749 mmHg 24%
    Mehr zeigen